| time (UTC) | temp F | wind direction | speed knots | gust knots | rain 1hr in | rain 24hr in | rain mn in | humidity % | barometer mb |
| 20260503021815 | 71 | 68 | 0.9 | 7.0 | 0.00 | 0.00 | 0.00 | 71 | 1007.5 |
| 20260503020330 | 72 | 269 | 0.9 | 3.5 | 0.00 | 0.00 | 0.00 | 70 | 1007.2 |
| 20260503014812 | 71 | 298 | 1.7 | 5.2 | 0.00 | 0.00 | 0.00 | 71 | 1008.2 |
| 20260503013324 | 70 | 90 | 0.9 | 2.6 | 0.00 | 0.00 | 0.00 | 70 | 1008.6 |
| 20260503011817 | 70 | 94 | 0.9 | 4.3 | 0.00 | 0.00 | 0.00 | 70 | 1008.8 |
| 20260503010316 | 69 | 73 | 0.9 | 2.6 | 0.00 | 0.00 | 0.00 | 70 | 1008.9 |
| 20260503004824 | 67 | 68 | 0.0 | 1.7 | 0.00 | 0.00 | 0.00 | 73 | 1009.4 |
| 20260503003336 | 65 | 84 | 0.0 | 0.9 | 0.00 | 0.00 | 0.00 | 72 | 1009.8 |
| 20260503001845 | 65 | 93 | 0.0 | 0.9 | 0.00 | 0.00 | 0.00 | 72 | 1010.1 |
| 20260503000319 | 64 | 89 | 0.0 | 0.9 | 0.00 | 0.00 | 0.00 | 73 | 1010.3 |
| 20260502234838 | 64 | 72 | 0.0 | 0.9 | 0.00 | 0.00 | 0.00 | 74 | 1010.5 |
| 20260502233323 | 63 | 107 | 0.0 | 0.0 | 0.00 | 0.00 | 0.00 | 76 | 1010.6 |
| 20260502231827 | 62 | 107 | 0.0 | 0.9 | 0.00 | 0.00 | 0.00 | 78 | 1010.5 |
| 20260502230316 | 61 | 83 | 0.0 | 0.0 | 0.00 | 0.00 | 0.00 | 76 | 1010.6 |
| 20260502224826 | 60 | 83 | 0.0 | 0.0 | 0.00 | 0.00 | 0.00 | 75 | 1010.6 |
| 20260502223337 | 60 | 82 | 0.0 | 0.0 | 0.00 | 0.00 | 0.00 | 74 | 1010.4 |
| 20260502221826 | 60 | 102 | 0.0 | 0.0 | 0.00 | 0.00 | 0.00 | 71 | 1010.3 |
| 20260502220337 | 58 | 102 | 0.0 | 0.9 | 0.00 | 0.00 | 0.00 | 76 | 1010.4 |
| 20260502214820 | 57 | 102 | 0.0 | 0.0 | 0.00 | 0.00 | 0.00 | 75 | 1010.4 |
| 20260502213330 | 55 | 102 | 0.0 | 0.0 | 0.00 | 0.00 | 0.00 | 82 | 1010.3 |
| 20260502211816 | 54 | 102 | 0.0 | 0.0 | 0.00 | 0.00 | 0.00 | 82 | 1010.3 |
| 20260502210329 | 54 | 102 | 0.0 | 0.0 | 0.00 | 0.00 | 0.00 | 79 | 1010.0 |
| 20260502204823 | 54 | 115 | 0.0 | 0.0 | 0.00 | 0.00 | 0.00 | 74 | 1010.0 |
| 20260502203328 | 53 | 110 | 0.0 | 0.9 | 0.00 | 0.00 | 0.00 | 79 | 1009.6 |
| 20260502201847 | 52 | 84 | 0.0 | 0.0 | 0.00 | 0.00 | 0.00 | 78 | 1009.4 |
| 20260502200315 | 52 | 108 | 0.0 | 0.0 | 0.00 | 0.00 | 0.00 | 80 | 1009.2 |
| 20260502194834 | 53 | 108 | 0.0 | 0.9 | 0.00 | 0.00 | 0.00 | 76 | 1009.2 |
| 20260502193323 | 52 | 97 | 0.0 | 0.9 | 0.00 | 0.00 | 0.00 | 77 | 1009.3 |
| 20260502191821 | 52 | 109 | 0.0 | 0.9 | 0.00 | 0.00 | 0.00 | 77 | 1009.4 |
| 20260502190339 | 55 | 91 | 0.0 | 0.9 | 0.00 | 0.00 | 0.00 | 70 | 1009.3 |
| 20260502184818 | 54 | 77 | 0.0 | 0.9 | 0.00 | 0.00 | 0.00 | 71 | 1009.4 |
| 20260502183332 | 53 | 92 | 0.0 | 0.9 | 0.00 | 0.00 | 0.00 | 75 | 1009.3 |
| 20260502181842 | 51 | 95 | 0.0 | 0.9 | 0.00 | 0.00 | 0.00 | 79 | 1009.1 |
| 20260502180319 | 49 | 88 | 0.0 | 0.0 | 0.00 | 0.00 | 0.00 | 82 | 1009.1 |
| 20260502170317 | 50 | 98 | 0.0 | 1.7 | 0.00 | 0.00 | 0.00 | 78 | 1009.4 |
| 20260502163323 | 49 | 89 | 0.0 | 0.9 | 0.00 | 0.00 | 0.00 | 80 | 1009.3 |
| 20260502161840 | 49 | 98 | 0.0 | 0.9 | 0.00 | 0.00 | 0.00 | 81 | 1009.2 |
| 20260502160328 | 49 | 98 | 0.0 | 0.9 | 0.00 | 0.00 | 0.00 | 79 | 1009.4 |
| 20260502151842 | 49 | 104 | 0.0 | 0.0 | 0.00 | 0.00 | 0.00 | 80 | 1009.2 |
| 20260502150328 | 50 | 108 | 0.0 | 0.0 | 0.00 | 0.00 | 0.00 | 77 | 1009.0 |
| 20260502130326 | 52 | 100 | 0.0 | 0.0 | 0.00 | 0.00 | 0.00 | 77 | 1009.1 |
| 20260502123327 | 55 | 100 | 0.0 | 0.0 | 0.00 | 0.00 | 0.00 | 71 | 1008.6 |
| 20260502121839 | 56 | 100 | 0.0 | 0.0 | 0.00 | 0.00 | 0.00 | 69 | 1008.5 |
| 20260502120328 | 58 | 107 | 0.0 | 0.9 | 0.00 | 0.00 | 0.00 | 66 | 1008.3 |
| 20260502114812 | 59 | 111 | 0.0 | 1.7 | 0.00 | 0.00 | 0.00 | 64 | 1008.2 |
| 20260502113312 | 59 | 106 | 0.0 | 0.9 | 0.00 | 0.00 | 0.00 | 64 | 1008.1 |
| 20260502111833 | 60 | 105 | 0.0 | 0.0 | 0.00 | 0.00 | 0.00 | 59 | 1008.1 |
| 20260502110340 | 61 | 106 | 0.0 | 0.0 | 0.00 | 0.00 | 0.00 | 57 | 1007.7 |
| 20260502104836 | 63 | 106 | 0.0 | 0.0 | 0.00 | 0.00 | 0.00 | 52 | 1007.5 |
| 20260502103343 | 64 | 100 | 0.0 | 1.7 | 0.00 | 0.00 | 0.00 | 48 | 1007.3 |
| 20260502101841 | 64 | 96 | 0.0 | 1.7 | 0.00 | 0.00 | 0.00 | 46 | 1007.0 |
| 20260502100346 | 63 | 98 | 0.0 | 0.9 | 0.00 | 0.00 | 0.00 | 52 | 1006.7 |
| 20260502090334 | 67 | 96 | 0.0 | 1.7 | 0.00 | 0.00 | 0.00 | 47 | 1005.4 |
| 20260502070321 | 74 | 102 | 0.0 | 7.0 | 0.00 | 0.08 | 0.00 | 29 | 1002.3 |
| 20260502064834 | 75 | 95 | 0.0 | 1.7 | 0.00 | 0.24 | 0.00 | 28 | 1002.3 |
| 20260502063317 | 75 | 104 | 0.0 | 3.5 | 0.00 | 0.24 | 0.00 | 28 | 1002.0 |
| 20260502061831 | 76 | 111 | 1.7 | 4.3 | 0.00 | 0.24 | 0.00 | 28 | 1001.3 |
| 20260502060402 | 76 | 97 | 0.9 | 4.3 | 0.00 | 0.24 | 0.00 | 30 | 1000.5 |
| 20260502054827 | 76 | 104 | 0.9 | 7.8 | 0.00 | 0.28 | 0.00 | 29 | 1000.1 |
| 20260502053326 | 75 | 145 | 1.7 | 9.6 | 0.00 | 0.28 | 0.00 | 29 | 999.8 |
| 20260502051849 | 75 | 135 | 1.7 | 7.8 | 0.00 | 0.28 | 0.00 | 27 | 999.6 |
| 20260502050324 | 76 | 124 | 0.9 | 2.6 | 0.00 | 0.28 | 0.00 | 30 | 999.6 |
| 20260502044812 | 76 | 131 | 0.9 | 3.5 | 0.00 | 0.63 | 0.00 | 30 | 999.4 |
| 20260502043330 | 76 | 110 | 2.6 | 7.0 | 0.00 | 0.63 | 0.00 | 28 | 999.5 |
| 20260502041815 | 77 | 112 | 0.9 | 1.7 | 0.00 | 0.63 | 0.00 | 29 | 999.4 |
| 20260502040312 | 76 | 116 | 2.6 | 13.9 | 0.00 | 0.63 | 0.00 | 29 | 999.2 |
| 20260502034825 | 77 | 101 | 0.0 | 6.1 | 0.00 | 1.50 | 0.00 | 27 | 998.6 |
| 20260502033310 | 77 | 105 | 2.6 | 7.8 | 0.00 | 1.50 | 0.00 | 27 | 998.4 |
| 20260502031821 | 77 | 73 | 0.0 | 1.7 | 0.00 | 1.50 | 0.00 | 28 | 997.6 |
| 20260502030320 | 78 | 75 | 2.6 | 5.2 | 0.00 | 1.50 | 0.00 | 28 | 997.2 |
| 20260502024833 | 80 | 104 | 0.0 | 0.9 | 0.00 | 2.72 | 0.00 | 32 | 996.8 |
| 20260502023320 | 78 | 70 | 0.0 | 1.7 | 0.00 | 2.72 | 0.00 | 40 | 996.4 |